Flag for United Kingdom Weather past 2 weeks in York, England, United Kingdom

Now
48 °F

Overcast.


Feels Like: 45 °F
Forecast: 45 / 64 °F
Wind: 7 mph from West

Location: Linton-On-Ouse

Current Time: May 25, 2015 at 6:44:36 AM

Latest Report: May 25, 2015 at 5:50 AM


Visibility: N/A

Pressure: 30.07 "Hg

Humidity: 76%

Dew point: 41 °F

Location of YorkLocation

Historic Weather in York — Graph

°F

York temperature yesterday

Maximum temperature yesterday: 61 °F (at 10:50 AM)
Minimum temperature yesterday: 50 °F (at 1:50 AM)
Average temperature yesterday: 55 °F

Past Weeks' High & Low Weather Summary

 TemperatureHumidityPressure
High66 °F (May 11, 12:50 PM)94% (May 18, 9:50 AM)30.30 "Hg (May 18, 9:50 AM)
Low41 °F (May 13, 4:50 AM)32% (May 11, 1:50 PM)29.39 "Hg (May 19, 3:50 AM)
Average53 °F68%30.00 "Hg
* Reported May 10 4:50 AM — May 25 4:50 AM, York, Weather by CustomWeather, © 2015

Note: Actual official high and low records may vary slightly from our data, if they occured in-between our weather recording intervals... More about our weather records

Advertising

York weather history for previous 24 hours

 ConditionsComfort  
Time TempWeatherWind HumidityBarometerVisibility
4:50 AM
Mon, May 25
48 °FOvercast.7 mph71%30.07 "HgN/A
3:50 AM48 °FPassing clouds.7 mph71%30.07 "HgN/A
2:50 AM50 °FPartly cloudy.10 mph67%30.07 "HgN/A
1:50 AM50 °FOvercast.12 mph71%30.07 "HgN/A
12:50 AM50 °FPartly cloudy.7 mph67%30.07 "HgN/A
11:50 PM
Sun, May 24
52 °FPassing clouds.7 mph62%30.07 "HgN/A
10:50 PM52 °FOvercast.6 mph62%30.07 "HgN/A
9:50 PM52 °FOvercast.9 mph58%30.07 "HgN/A
8:50 PM54 °FOvercast.10 mph58%30.07 "HgN/A
7:50 PM55 °FPartly sunny.9 mph59%30.07 "HgN/A
6:50 PM57 °FOvercast.13 mph55%30.04 "HgN/A
5:50 PM59 °FPartly sunny.14 mph51%30.04 "HgN/A
4:50 PM61 °FPartly sunny.7 mph52%30.04 "HgN/A
3:50 PM61 °FBroken clouds.6 mph52%30.04 "HgN/A
2:50 PM61 °FBroken clouds.7 mph55%30.04 "HgN/A
1:50 PM57 °FBroken clouds.13 mph59%30.04 "HgN/A
12:50 PM59 °FPartly sunny.17 mph59%30.01 "HgN/A
11:50 AM61 °FPartly sunny.13 mph63%30.01 "HgN/A
10:50 AM61 °FBroken clouds.12 mph72%30.01 "HgN/A
9:50 AM57 °FPartly sunny.10 mph88%30.01 "HgN/A
8:50 AM55 °FOvercast.5 mph88%30.01 "HgN/A
7:50 AM54 °FPartly sunny.6 mph88%30.01 "Hg4 mi
6:50 AM52 °FPartly sunny.5 mph88%30.01 "Hg4 mi
Weather by CustomWeather, © 2015

See weather overviewHow to use our weather pages